Location: Pilipovskiye Korichintsy
(49.1833°N, 27.4667°E)
Time: 22:36:36
(UTC+00:00)

Cosmos 1833 Rocket - Pass Details

Date: 14 July 2020
Orbit: 832 x 840 km, 71.0° (Epoch: 10 August)

Event Time Altitude Azimuth Distance (km) Brightness Sun altitude
Exits shadow 00:45:00 16° 216° (SW) 2,042 4.0 -11.8°
Maximum altitude 00:49:31 74° 300° (WNW) 871 2.8 -11.4°
Drops below altitude 10° 00:55:10 10° 26° (NNE) 2,456 6.6 -10.8°
Sets 00:57:38 0° 28° (NNE) 3,395 7.9 -10.6°
